Weather History for Big Bear City, CA

Change the Weather History Date:

Monday, December 3, 2012

  Actual Average (KBUO) Record (KBUO)
Temperature  
Mean Temperature 42 °F -  
Max Temperature 55 °F 60 °F 69 °F (2000)
Min Temperature 30 °F 42 °F 35 °F (1997)
Degree Days  
Heating Degree Days 22    
Moisture  
Dew Point 24 °F    
Average Humidity 56    
Maximum Humidity 87    
Minimum Humidity 12    
Precipitation  
Precipitation 0.00 in - - ()
Sea Level Pressure  
Sea Level Pressure 30.24 in    
Wind  
Wind Speed 7 mph (WSW)    
Max Wind Speed 13 mph    
Max Gust Speed 21 mph    
Visibility 10 miles    
Events      
Averages and records for this station are not official NWS values.
T = Trace of Precipitation, MM = Missing Value Source: NWS Daily Summary

Daily Weather History Graph

Daily Weather History Graph

Search for Another Location

Airport:

Trip Planner

Search our weather history database for the weather conditions in past years. The results will help you decide how hot, cold, wet, or windy it might be!

Date:

Astronomy

Dec. 03, 2012 Rise Set
Actual Time 6:37 AM PST 4:37 PM PST
Civil Twilight 6:09 AM PST 5:04 PM PST
Nautical Twilight 5:38 AM PST 5:36 PM PST
Astronomical Twilight 5:08 AM PST 6:06 PM PST
Moon 9:21 PM PST (12/3) 10:09 AM PST (12/3)
Length of Visible Light 10h 54m
Length of Day
9h 59m
Waning Gibbous, 77% of the Moon is Illuminated
Dec 3
Waning Gibbous
Dec 6
Last Quarter
Dec 13
New
Dec 19
First Quarter
Dec 28
Full

Hourly Weather History & Observations

Time (PST) Temp. Windchill Dew Point Humidity Pressure Visibility Wind Dir Wind Speed Gust Speed Precip Events Conditions
12:15 AM 41.0 °F 34.7 °F 37.4 °F 87% 30.17 in 5.0 mi West 10.4 mph - N/A   Overcast
12:35 AM 41.0 °F 35.2 °F 37.4 °F 87% 30.17 in 4.0 mi West 9.2 mph - N/A   Drizzle
12:55 AM 41.0 °F 34.7 °F 37.4 °F 87% 30.17 in 10.0 mi West 10.4 mph - N/A   Overcast
1:15 AM 41.0 °F 35.2 °F 37.4 °F 87% 30.18 in 10.0 mi West 9.2 mph - N/A   Overcast
1:35 AM 41.0 °F 35.8 °F 37.4 °F 87% 30.19 in 10.0 mi West 8.1 mph - N/A   Overcast
1:55 AM 41.0 °F 35.2 °F 37.4 °F 87% 30.18 in 10.0 mi West 9.2 mph - N/A   Overcast
2:15 AM 41.0 °F 35.2 °F 37.4 °F 87% 30.17 in 10.0 mi West 9.2 mph - N/A   Overcast
2:35 AM 41.0 °F 37.1 °F 37.4 °F 87% 30.18 in 10.0 mi WSW 5.8 mph - N/A   Overcast
2:55 AM 41.0 °F 35.2 °F 37.4 °F 87% 30.17 in 10.0 mi WSW 9.2 mph - N/A   Overcast
3:15 AM 41.0 °F 34.3 °F 37.4 °F 87% 30.17 in 10.0 mi WSW 11.5 mph 16.1 mph N/A   Overcast
3:35 AM 42.8 °F 37.5 °F 37.4 °F 81% 30.17 in 10.0 mi WSW 9.2 mph - N/A   Overcast
3:55 AM 42.8 °F 38.0 °F 37.4 °F 81% 30.17 in 10.0 mi WSW 8.1 mph - N/A   Overcast
4:15 AM 42.8 °F 37.5 °F 37.4 °F 81% 30.17 in 10.0 mi WSW 9.2 mph 17.3 mph N/A   Overcast
4:35 AM 41.0 °F 34.7 °F 37.4 °F 87% 30.18 in 10.0 mi WSW 10.4 mph - N/A   Overcast
5:15 AM 41.0 °F 34.7 °F 37.4 °F 87% 30.19 in 7.0 mi WSW 10.4 mph 20.7 mph N/A   Light Drizzle
5:55 AM 42.8 °F 38.0 °F 35.6 °F 76% 30.20 in 10.0 mi WSW 8.1 mph 16.1 mph N/A   Scattered Clouds
6:15 AM 41.0 °F 37.1 °F 35.6 °F 81% 30.21 in 10.0 mi WSW 5.8 mph - N/A   Scattered Clouds
6:35 AM 42.8 °F 38.6 °F 35.6 °F 76% 30.22 in 10.0 mi WSW 6.9 mph - N/A   Scattered Clouds
6:55 AM 41.0 °F 36.4 °F 35.6 °F 81% 30.22 in 10.0 mi West 6.9 mph - N/A   Scattered Clouds
7:15 AM 42.8 °F 38.0 °F 35.6 °F 76% 30.22 in 10.0 mi WSW 8.1 mph - N/A   Scattered Clouds
7:35 AM 42.8 °F 38.0 °F 35.6 °F 76% 30.23 in 10.0 mi WSW 8.1 mph 16.1 mph N/A   Scattered Clouds
7:55 AM 42.8 °F 39.3 °F 35.6 °F 76% 30.24 in 10.0 mi WSW 5.8 mph - N/A   Scattered Clouds
8:15 AM 44.6 °F 40.7 °F 35.6 °F 71% 30.24 in 10.0 mi WSW 6.9 mph - N/A   Clear
8:35 AM 44.6 °F 39.7 °F 35.6 °F 71% 30.25 in 10.0 mi West 9.2 mph - N/A   Scattered Clouds
8:55 AM 44.6 °F 39.2 °F 35.6 °F 71% 30.25 in 10.0 mi West 10.4 mph - N/A   Scattered Clouds
9:15 AM 46.4 °F 41.9 °F 35.6 °F 66% 30.25 in 10.0 mi West 9.2 mph - N/A   Clear
9:35 AM 48.2 °F - 33.8 °F 58% 30.26 in 10.0 mi West 9.2 mph - N/A   Clear
9:55 AM 48.2 °F - 33.8 °F 58% 30.26 in 10.0 mi West 8.1 mph - N/A   Clear
10:15 AM 50.0 °F - 32.0 °F 50% 30.27 in 10.0 mi West 5.8 mph - N/A   Clear
10:55 AM 51.8 °F - 23.0 °F 33% 30.26 in 10.0 mi West 6.9 mph - N/A   Clear
11:15 AM 53.6 °F - 17.6 °F 24% 30.26 in 10.0 mi WSW 5.8 mph - N/A   Clear
11:35 AM 53.6 °F - 23.0 °F 30% 30.25 in 10.0 mi West 9.2 mph - N/A   Clear
11:55 AM 53.6 °F - 17.6 °F 24% 30.24 in 10.0 mi West 9.2 mph - N/A   Clear
12:15 PM 55.4 °F - 14.0 °F 20% 30.24 in 10.0 mi West 9.2 mph - N/A   Clear
12:35 PM 53.6 °F - 14.0 °F 21% 30.24 in 10.0 mi WSW 10.4 mph 16.1 mph N/A   Clear
12:55 PM 55.4 °F - 12.2 °F 18% 30.23 in 10.0 mi West 12.7 mph - N/A   Clear
1:15 PM 55.4 °F - 8.6 °F 15% 30.23 in 10.0 mi WSW 9.2 mph - N/A   Clear
1:35 PM 55.4 °F - 5.0 °F 13% 30.23 in 10.0 mi WSW 4.6 mph - N/A   Clear
1:55 PM 55.4 °F - 3.2 °F 12% 30.22 in 10.0 mi WSW 5.8 mph - N/A   Clear
2:15 PM 55.4 °F - 5.0 °F 13% 30.23 in 10.0 mi WSW 4.6 mph - N/A   Clear
2:35 PM 55.4 °F - 5.0 °F 13% 30.22 in 10.0 mi WSW 6.9 mph - N/A   Clear
2:55 PM 55.4 °F - 5.0 °F 13% 30.22 in 10.0 mi West 6.9 mph - N/A   Clear
3:15 PM 53.6 °F - 5.0 °F 14% 30.23 in 10.0 mi West 8.1 mph - N/A   Clear
3:35 PM 53.6 °F - 8.6 °F 16% 30.23 in 10.0 mi WSW 9.2 mph - N/A   Clear
3:55 PM 51.8 °F - 10.4 °F 19% 30.23 in 10.0 mi SW 5.8 mph - N/A   Clear
4:15 PM 51.8 °F - 12.2 °F 21% 30.23 in 10.0 mi WSW 4.6 mph - N/A   Clear
4:35 PM 48.2 °F - 12.2 °F 24% 30.24 in 10.0 mi West 4.6 mph - N/A   Clear
4:55 PM 44.6 °F - 17.6 °F 34% 30.25 in 10.0 mi Calm Calm - N/A   Clear
5:15 PM 42.8 °F - 17.6 °F 36% 30.26 in 10.0 mi Calm Calm - N/A   Clear
5:35 PM 41.0 °F - 19.4 °F 42% 30.27 in 10.0 mi Calm Calm - N/A   Clear
5:55 PM 37.4 °F - 19.4 °F 48% 30.27 in 10.0 mi Calm Calm - N/A   Clear
6:15 PM 35.6 °F - 19.4 °F 52% 30.28 in 10.0 mi Calm Calm - N/A   Clear
6:35 PM 35.6 °F - 19.4 °F 52% 30.29 in 10.0 mi Calm Calm - N/A   Clear
6:55 PM 33.8 °F - 21.2 °F 60% 30.29 in 10.0 mi Calm Calm - N/A   Clear
7:15 PM 33.8 °F - 19.4 °F 56% 30.30 in 10.0 mi Calm Calm - N/A   Clear
7:35 PM 32.0 °F - 19.4 °F 60% 30.31 in 10.0 mi Calm Calm - N/A   Clear
7:55 PM 32.0 °F - 19.4 °F 60% 30.31 in 10.0 mi Calm Calm - N/A   Clear
8:15 PM 32.0 °F - 19.4 °F 60% 30.31 in 10.0 mi Calm Calm - N/A   Clear
8:35 PM 32.0 °F - 19.4 °F 60% 30.31 in 10.0 mi Calm Calm - N/A   Clear
8:55 PM 32.0 °F - 19.4 °F 60% 30.32 in 10.0 mi Calm Calm - N/A   Clear
9:15 PM 32.0 °F - 19.4 °F 60% 30.32 in 10.0 mi Calm Calm - N/A   Clear
9:35 PM 32.0 °F - 19.4 °F 60% 30.33 in 10.0 mi Calm Calm - N/A   Clear
10:15 PM 30.2 °F - 19.4 °F 64% 30.32 in 10.0 mi Calm Calm - N/A   Clear
10:35 PM 30.2 °F - 19.4 °F 64% 30.32 in 10.0 mi Calm Calm - N/A   Clear
10:55 PM 32.0 °F 27.5 °F 21.2 °F 64% 30.33 in 10.0 mi West 4.6 mph - N/A   Clear
11:15 PM 30.2 °F - 19.4 °F 64% 30.33 in 10.0 mi Calm Calm - N/A   Clear
11:35 PM 30.2 °F - 19.4 °F 64% 30.32 in 10.0 mi Calm Calm - N/A   Clear
11:55 PM 32.0 °F 27.5 °F 21.2 °F 64% 30.33 in 10.0 mi West 4.6 mph - N/A   Clear